Regional Weather Roundup
Issued by NWS

Home | Current Version | Previous Version | Graphics & Text | Print | Product List | Glossary Off
Versions: 1 2 3 4 5 6 7 8 9 10 11 12 13 14 15 16 17 18 19 20 21 22 23 24 25 26 27 28 29 30 31 32 33 34 35 36 37 38 39 40 41 42 43 44 45 46 47 48 49 50

000
ASUS43 KDMX 201706
RWRIA

WEATHER ROUNDUP FOR IOWA
NATIONAL WEATHER SERVICE DES MOINES IA
1100 AM CST MON FEB 20 2017

NOTE: "FAIR" INDICATES FEW OR NO CLOUDS BELOW 12,000 FEET WITH NO
SIGNIFICANT WEATHER AND/OR OBSTRUCTIONS TO VISIBILITY.

* - THESE STATIONS ARE NOT NWS STATIONS...THUS NOT UNDER NWS
QUALITY CONTROL.  THEY ALSO DO NOT REPORT WEATHER SUCH
AS PRECIPITATION OR FOG.

IAZ001>003-012>014-020>022-031>034-043>046-201800-
   NORTHWEST IOWA

CITY           SKY/WX    TMP DP  RH WIND       PRES   REMARKS
CARROLL *      CLOUDY    57  57 100 S14       29.75F FOG
CHEROKEE *     CLOUDY    57  57 100 S9        29.71F FOG
DENISON *      CLOUDY    57  57 100 S16G25    29.71F FOG
LE MARS *      CLOUDY    57  57 100 S15G21    29.71R FOG
SHELDON *      CLOUDY    55  55 100 S15       29.68S FOG
SIOUX CITY     CLOUDY    60  57  89 S15       29.71R
SPENCER        LGT RAIN  54  53  97 S17       29.71F FOG
STORM LAKE *   CLOUDY    55  54  94 S18       29.72F FOG
$$

IAZ055>058-069>071-079>083-090>094-201800-
   SOUTHWEST IOWA

CITY           SKY/WX    TMP DP  RH WIND       PRES   REMARKS
ATLANTIC *     CLOUDY    57  57 100 S10       29.76F FOG
CLARINDA *     CLOUDY    59  59 100 S10         N/A
COUNCIL BLFS * CLOUDY    59  59 100 S14G20    29.73F
CRESTON *      CLOUDY    57  57 100 S13G21    29.81S
HARLAN  *      CLOUDY    57  57 100 S10       29.78F FOG
LAMONI         CLOUDY    58  56  93 S10G20    29.82F
RED OAK *      CLOUDY    59  57  94 S13       29.75F FOG
SHENANDOAH *   CLOUDY    59  57  94 S12       29.77F
$$

IAZ047>049-059>061-072>074-084-201800-
   CENTRAL IOWA

CITY           SKY/WX    TMP DP  RH WIND       PRES   REMARKS
AMES           RAIN      56  56 100 SE8       29.80F FOG
ANKENY *       LGT RAIN  59  55  88 S7        29.82S
BOONE *        LGT RAIN  54  54 100 SE8       29.78F
CHARITON *     CLOUDY    59  55  88 S15G26    29.82F FOG
DES MOINES     LGT RAIN  61  56  83 S10       29.81F
GRINNELL*      CLOUDY    60  54  78 SE13      29.85F
KNOXVILLE *    CLOUDY    63  55  77 S14G23    29.82R
MARSHALLTOWN   CLOUDY    57  54  89 SE12      29.82F
NEWTON *       CLOUDY    59  54  82 MISG      29.82F
PELLA *        LGT RAIN  63  54  74 S12G18    29.86R
PERRY *        RAIN      57  56  97 S12       29.79F
$$

IAZ004>006-015-016-023>025-035-036-201800-
   NORTH CENTRAL IOWA

CITY           SKY/WX    TMP DP  RH WIND       PRES   REMARKS
ALGONA *       LGT RAIN  54  54 100 S18       29.76S
CLARION *      FOG       52  52 100 SE13      29.79F VSB 1
ESTHERVILLE    LGT RAIN  51  51 100 S16       29.72S FOG
FORT DODGE *   CLOUDY    55  52  88 S13       29.78S
MASON CITY     LGT RAIN  49  48  97 SE15      29.81F FOG
FOREST CITY *  LGT RAIN  48  48 100 SE15      29.79F
IOWA FALLS *   CLOUDY    52  51  97 SE12      29.82F FOG
$$

IAZ007>011-017>019-026>030-037>042-050>054-066-201800-
   NORTHEAST IOWA

CITY           SKY/WX    TMP DP  RH WIND       PRES   REMARKS
CEDAR RAPIDS   CLOUDY    58  53  84 S17G23    29.88F
CHARLES CITY * CLOUDY    50  50 100 SE17      29.84F FOG
CLINTON *      CLOUDY    56  51  84 SE17      29.97F
DECORAH *      CLOUDY    48  48 100 VRB6      29.89F FOG
DUBUQUE        CLOUDY    50  49  96 SE16G26   29.94F FOG
MONTICELLO *   PTSUNNY   54  52  94 SE15G22   29.92F FOG
OELWEIN *      CLOUDY    52  52 100 SE14G20   29.88F FOG
WATERLOO       CLOUDY    54  50  86 SE9       29.85F FOG
$$

IAZ064-065-067-068-078-201800-
   EAST CENTRAL IOWA

CITY           SKY/WX    TMP DP  RH WIND       PRES   REMARKS
DAVENPORT      CLOUDY    58  50  75 SE18      29.96F
IOWA CITY      CLOUDY    60  52  74 SE16      29.92F
MUSCATINE *    CLOUDY    61  52  72 SE12G23   29.94F
QUAD CITIES    CLOUDY    60  50  69 SE14      29.96F
$$

IAZ062-063-075>077-085>089-095>099-201800-
   SOUTHEAST IOWA

CITY           SKY/WX    TMP DP  RH WIND       PRES   REMARKS
BURLINGTON     PTSUNNY   62  53  72 S14       29.94F
FAIRFIELD *    CLOUDY    64  52  63 S23G29    29.88F
KEOKUK *       CLOUDY    68  54  60 SE10G18   29.92F
OTTUMWA        CLOUDY    64  53  67 S21       29.87R
WASHINGTON *   PTSUNNY   63  54  72 S22G29    29.90F
$$

ABBREVIATIONS USED IN REMARKS
   TC - TEMPERATURES IN CELSIUS
  WCI - WIND CHILL INDEX
   HX - HEAT INDEX
  VSB - VISIBILITY
$$





USA.gov is the U.S. government's official web portal to all federal, state and local government web resources and services.